BAW9ZY EGLL-CYYZ

Flight info

Callsign BAW9ZY
Flight time N/A
Altitude 40000
Route CPT5J CPT L9 DIDZA N14 OKTAD DCT MEDOG DCT VATRY DCT PIKIL/M085F390 NATA ALLRY/N0485F400 DCT QUBIS DCT LETAK IMEBA9
Aircraft B789/H-SADE1E2E3FGHIJ1J3J4J5J6LM1M2OP2RWXYZ/LB1D1G1

Departure

Time 2026-05-08 07:13
Airport London Heathrow Airport (EGLL)

Arrival

Time N/A
Airport Toronto Pearson International Airport (CYYZ)
Time Latitude Longitude Altitude Speed Heading
2026-05-08 06:34 51.46819 -0.45573 91 ft 0 kts
2026-05-08 06:56 51.46802 -0.45572 89 ft 2 kts 352°
2026-05-08 06:56 51.46786 -0.45566 88 ft 2 kts 340°
2026-05-08 06:56 51.46772 -0.45554 91 ft 2 kts 323°
2026-05-08 06:57 51.46760 -0.45535 91 ft 2 kts 303°
2026-05-08 06:57 51.46753 -0.45511 90 ft 2 kts 287°
2026-05-08 06:57 51.46750 -0.45485 90 ft 2 kts 275°
2026-05-08 06:57 51.46749 -0.45470 90 ft 1 kts 270°
2026-05-08 06:58 51.46749 -0.45469 90 ft 0 kts 270°
2026-05-08 07:01 51.46749 -0.45470 90 ft 0 kts 270°
2026-05-08 07:02 51.46749 -0.45474 89 ft 2 kts 270°
2026-05-08 07:02 51.46750 -0.45518 89 ft 6 kts 270°
2026-05-08 07:03 51.46751 -0.45603 87 ft 9 kts 271°
2026-05-08 07:03 51.46751 -0.45705 88 ft 9 kts 270°
2026-05-08 07:03 51.46751 -0.45809 89 ft 10 kts 270°
2026-05-08 07:03 51.46751 -0.45927 88 ft 12 kts 270°
2026-05-08 07:04 51.46749 -0.46072 88 ft 14 kts 269°
2026-05-08 07:04 51.46748 -0.46217 94 ft 12 kts 269°
2026-05-08 07:04 51.46746 -0.46343 96 ft 11 kts 269°
2026-05-08 07:04 51.46747 -0.46470 96 ft 12 kts 271°
2026-05-08 07:05 51.46749 -0.46613 96 ft 13 kts 271°
2026-05-08 07:05 51.46749 -0.46754 94 ft 12 kts 270°
2026-05-08 07:05 51.46748 -0.46901 96 ft 15 kts 269°
2026-05-08 07:05 51.46747 -0.47084 92 ft 18 kts 270°
2026-05-08 07:06 51.46747 -0.47276 92 ft 17 kts 270°
2026-05-08 07:06 51.46747 -0.47478 90 ft 19 kts 270°
2026-05-08 07:06 51.46747 -0.47693 91 ft 19 kts 270°
2026-05-08 07:06 51.46746 -0.47891 93 ft 17 kts 269°
2026-05-08 07:07 51.46745 -0.48047 90 ft 13 kts 269°
2026-05-08 07:07 51.46730 -0.48169 94 ft 9 kts 231°
2026-05-08 07:07 51.46683 -0.48213 94 ft 7 kts 216°
2026-05-08 07:07 51.46660 -0.48271 95 ft 6 kts 247°
2026-05-08 07:08 51.46653 -0.48346 94 ft 7 kts 273°
2026-05-08 07:08 51.46655 -0.48435 96 ft 9 kts 270°
2026-05-08 07:08 51.46655 -0.48542 95 ft 11 kts 269°
2026-05-08 07:08 51.46653 -0.48667 92 ft 12 kts 267°
2026-05-08 07:09 51.46613 -0.48754 94 ft 9 kts 212°
2026-05-08 07:09 51.46605 -0.48760 94 ft 2 kts 204°
2026-05-08 07:09 51.46596 -0.48765 92 ft 3 kts 196°
2026-05-08 07:09 51.46566 -0.48778 91 ft 6 kts 194°
2026-05-08 07:10 51.46524 -0.48779 93 ft 6 kts 167°
2026-05-08 07:10 51.46496 -0.48750 92 ft 4 kts 137°
2026-05-08 07:10 51.46479 -0.48725 95 ft 5 kts 137°
2026-05-08 07:10 51.46457 -0.48693 96 ft 7 kts 137°
2026-05-08 07:11 51.46441 -0.48663 94 ft 0 kts 110°
2026-05-08 07:11 51.46442 -0.48656 94 ft 0 kts 91°
2026-05-08 07:11 51.46443 -0.48653 93 ft 0 kts 77°
2026-05-08 07:12 51.46456 -0.48597 92 ft 13 kts 68°
2026-05-08 07:12 51.46478 -0.48369 93 ft 29 kts 89°
2026-05-08 07:12 51.46479 -0.47817 89 ft 79 kts 90°
2026-05-08 07:12 51.46481 -0.46563 93 ft 141 kts 89°
2026-05-08 07:13 51.46502 -0.44801 380 ft 165 kts 85°
2026-05-08 07:13 51.46510 -0.42796 648 ft 197 kts 92°
2026-05-08 07:13 51.46118 -0.40597 1299 ft 213 kts 126°
2026-05-08 07:13 51.44942 -0.39100 2057 ft 231 kts 161°
2026-05-08 07:14 51.43301 -0.39174 2921 ft 247 kts 204°
2026-05-08 07:14 51.41999 -0.40971 4039 ft 255 kts 232°
2026-05-08 07:14 51.41025 -0.43398 5125 ft 260 kts 238°
2026-05-08 07:14 51.40282 -0.46068 5894 ft 276 kts 259°
2026-05-08 07:15 51.40338 -0.49170 6021 ft 281 kts 281°
2026-05-08 07:15 51.40777 -0.52183 6001 ft 276 kts 283°
2026-05-08 07:15 51.41208 -0.55181 5991 ft 275 kts 281°
2026-05-08 07:15 51.41577 -0.58188 5996 ft 274 kts 279°
2026-05-08 07:16 51.41936 -0.61191 5994 ft 274 kts 280°
2026-05-08 07:16 51.42303 -0.64141 5989 ft 274 kts 280°
2026-05-08 07:16 51.42816 -0.67104 6434 ft 276 kts 292°
2026-05-08 07:16 51.43612 -0.69879 7569 ft 275 kts 293°
2026-05-08 07:17 51.44372 -0.72710 8593 ft 277 kts 290°
2026-05-08 07:17 51.45075 -0.75603 9613 ft 279 kts 289°
2026-05-08 07:17 51.45782 -0.78521 10386 ft 291 kts 289°
2026-05-08 07:17 51.46569 -0.81685 10657 ft 319 kts 290°
2026-05-08 07:18 51.47432 -0.85125 10953 ft 343 kts 290°
2026-05-08 07:18 51.48318 -0.88679 11911 ft 344 kts 290°
2026-05-08 07:18 51.49200 -0.92247 12742 ft 350 kts 289°
2026-05-08 07:18 51.50101 -0.95899 13609 ft 355 kts 289°
2026-05-08 07:19 51.51017 -0.99609 14386 ft 359 kts 289°
2026-05-08 07:19 51.51945 -1.03373 15145 ft 364 kts 289°
2026-05-08 07:19 51.52882 -1.07181 15881 ft 368 kts 289°
2026-05-08 07:19 51.53830 -1.11044 16621 ft 373 kts 289°
2026-05-08 07:20 51.54774 -1.14894 17336 ft 377 kts 289°
2026-05-08 07:20 51.55741 -1.18847 18055 ft 382 kts 289°
2026-05-08 07:20 51.56719 -1.22850 18716 ft 386 kts 290°
2026-05-08 07:20 51.57705 -1.26892 19345 ft 389 kts 290°
2026-05-08 07:21 51.58694 -1.30956 19971 ft 392 kts 290°
2026-05-08 07:21 51.59682 -1.35024 20560 ft 395 kts 290°
2026-05-08 07:21 51.60695 -1.39165 21157 ft 399 kts 292°
2026-05-08 07:21 51.61994 -1.43147 21650 ft 404 kts 297°
2026-05-08 07:22 51.63328 -1.47144 22259 ft 406 kts 297°
2026-05-08 07:22 51.64657 -1.51174 22785 ft 409 kts 297°
2026-05-08 07:22 51.65988 -1.55181 23333 ft 413 kts 297°
2026-05-08 07:22 51.67354 -1.59274 23807 ft 416 kts 297°
2026-05-08 07:23 51.68725 -1.63401 24277 ft 417 kts 297°
2026-05-08 07:23 51.70017 -1.67597 24713 ft 418 kts 289°
2026-05-08 07:23 51.70700 -1.72139 25145 ft 418 kts 277°
2026-05-08 07:23 51.71049 -1.76809 25543 ft 420 kts 277°
2026-05-08 07:24 51.71373 -1.81474 25965 ft 422 kts 277°
2026-05-08 07:24 51.71771 -1.86189 26361 ft 424 kts 284°
2026-05-08 07:24 51.72482 -1.90821 26724 ft 426 kts 284°
2026-05-08 07:24 51.73174 -1.95468 27182 ft 427 kts 284°
2026-05-08 07:25 51.73860 -2.00152 27591 ft 429 kts 284°
2026-05-08 07:25 51.74552 -2.04845 28020 ft 431 kts 285°
2026-05-08 07:25 51.75940 -2.14236 28861 ft 434 kts 285°
2026-05-08 07:26 51.76635 -2.18994 29273 ft 436 kts 285°
2026-05-08 07:26 51.77332 -2.23774 29675 ft 437 kts 285°
2026-05-08 07:26 51.78031 -2.28565 30072 ft 439 kts 285°
2026-05-08 07:26 51.78729 -2.33375 30428 ft 440 kts 285°
2026-05-08 07:27 51.79426 -2.38191 30780 ft 441 kts 285°
2026-05-08 07:27 51.80124 -2.43033 31132 ft 442 kts 285°
2026-05-08 07:27 51.80812 -2.47820 31479 ft 443 kts 285°
2026-05-08 07:27 51.81508 -2.52677 31827 ft 443 kts 285°
2026-05-08 07:28 51.82200 -2.57546 32176 ft 444 kts 284°
2026-05-08 07:28 51.82864 -2.62452 32535 ft 444 kts 284°
2026-05-08 07:28 51.83505 -2.67285 32878 ft 445 kts 284°
2026-05-08 07:28 51.84167 -2.72174 33221 ft 445 kts 284°
2026-05-08 07:29 51.84836 -2.77069 33532 ft 446 kts 284°
2026-05-08 07:29 51.85498 -2.81983 33912 ft 445 kts 284°
2026-05-08 07:29 51.86141 -2.86815 34357 ft 442 kts 284°
2026-05-08 07:29 51.86791 -2.91693 34626 ft 443 kts 283°
2026-05-08 07:30 51.87446 -2.96593 34887 ft 444 kts 283°
2026-05-08 07:30 51.88096 -3.01482 35163 ft 445 kts 283°
2026-05-08 07:30 51.88735 -3.06325 35434 ft 445 kts 283°
2026-05-08 07:30 51.89381 -3.11233 35714 ft 446 kts 283°
2026-05-08 07:31 51.90028 -3.16155 35943 ft 447 kts 283°
2026-05-08 07:31 51.90674 -3.21093 36225 ft 447 kts 282°
2026-05-08 07:31 51.91319 -3.26037 36477 ft 448 kts 282°
2026-05-08 07:31 51.91961 -3.30982 36727 ft 449 kts 282°
2026-05-08 07:32 51.92603 -3.35937 36981 ft 450 kts 282°
2026-05-08 07:32 51.93242 -3.40893 37218 ft 450 kts 282°
2026-05-08 07:32 51.93885 -3.45891 37467 ft 451 kts 282°
2026-05-08 07:32 51.94523 -3.50868 37706 ft 452 kts 282°
2026-05-08 07:33 51.95415 -3.55690 37946 ft 453 kts 291°
2026-05-08 07:33 51.96776 -3.60296 38124 ft 455 kts 296°
2026-05-08 07:33 51.98240 -3.64879 38334 ft 457 kts 296°
2026-05-08 07:33 51.99707 -3.69470 38565 ft 458 kts 296°
2026-05-08 07:34 52.01164 -3.74012 38763 ft 459 kts 296°
2026-05-08 07:34 52.02640 -3.78618 38945 ft 459 kts 296°
2026-05-08 07:34 52.04113 -3.83245 39114 ft 460 kts 295°
2026-05-08 07:34 52.05582 -3.87869 39292 ft 461 kts 295°
2026-05-08 07:35 52.07054 -3.92498 39471 ft 461 kts 295°
2026-05-08 07:35 52.08529 -3.97147 39647 ft 462 kts 295°
2026-05-08 07:35 52.09982 -4.01740 39799 ft 463 kts 295°
2026-05-08 07:35 52.11455 -4.06407 39955 ft 464 kts 295°
2026-05-08 07:36 52.12935 -4.11102 40054 ft 467 kts 295°
2026-05-08 07:36 52.15916 -4.20582 40045 ft 468 kts 295°
2026-05-08 07:37 52.18862 -4.29990 40043 ft 465 kts 295°
2026-05-08 07:37 52.21772 -4.39323 40044 ft 464 kts 295°
2026-05-08 07:38 52.24698 -4.48736 40046 ft 464 kts 295°
2026-05-08 07:38 52.27588 -4.58075 40052 ft 464 kts 295°
2026-05-08 07:39 52.30499 -4.67518 40056 ft 466 kts 294°
2026-05-08 07:39 52.33415 -4.77011 40059 ft 468 kts 294°
2026-05-08 07:40 52.36325 -4.86522 40057 ft 466 kts 294°
2026-05-08 07:40 52.39198 -4.95951 40043 ft 465 kts 294°
2026-05-08 07:41 52.42074 -5.05428 40042 ft 464 kts 294°
2026-05-08 07:41 52.44948 -5.14935 40045 ft 464 kts 294°
2026-05-08 07:42 52.47804 -5.24420 40049 ft 465 kts 294°
2026-05-08 07:42 52.50186 -5.32358 40050 ft 466 kts 294°
2026-05-08 07:43 52.53508 -5.43476 40058 ft 467 kts 294°
2026-05-08 07:43 52.56675 -5.52804 40076 ft 470 kts 303°
2026-05-08 07:44 52.59863 -5.60153 40057 ft 470 kts 303°
2026-05-08 07:44 52.63648 -5.68858 40057 ft 469 kts 302°
2026-05-08 07:45 52.67434 -5.77634 40050 ft 468 kts 302°
2026-05-08 07:45 52.71207 -5.86389 40056 ft 468 kts 302°
2026-05-08 07:46 52.74950 -5.95116 40055 ft 469 kts 302°
2026-05-08 07:46 52.78720 -6.03930 40047 ft 470 kts 302°
2026-05-08 07:47 52.82483 -6.12760 40043 ft 470 kts 302°
2026-05-08 07:47 52.86243 -6.21614 40047 ft 470 kts 302°
2026-05-08 07:48 52.89977 -6.30393 40049 ft 469 kts 302°
2026-05-08 07:48 52.93744 -6.39250 40049 ft 470 kts 302°
2026-05-08 07:49 52.97516 -6.48141 40038 ft 472 kts 302°
2026-05-08 07:49 53.01291 -6.57054 40041 ft 472 kts 302°
2026-05-08 07:50 53.05064 -6.65975 40047 ft 471 kts 302°
2026-05-08 07:50 53.08816 -6.74864 40050 ft 471 kts 302°
2026-05-08 07:51 53.12579 -6.83789 40049 ft 470 kts 302°
2026-05-08 07:51 53.16302 -6.92644 40042 ft 469 kts 302°
2026-05-08 07:52 53.20055 -7.01593 40040 ft 471 kts 302°
2026-05-08 07:52 53.23809 -7.10573 40041 ft 472 kts 302°
2026-05-08 07:53 53.27566 -7.19589 40035 ft 473 kts 302°
2026-05-08 07:53 53.31319 -7.28629 40035 ft 473 kts 301°
2026-05-08 07:54 53.35054 -7.37659 40034 ft 472 kts 301°
2026-05-08 07:54 53.38778 -7.46691 40034 ft 472 kts 301°
2026-05-08 07:55 53.42509 -7.55767 40034 ft 472 kts 301°
2026-05-08 07:55 53.46204 -7.64785 40036 ft 471 kts 301°
2026-05-08 07:56 53.49915 -7.73874 40032 ft 471 kts 301°
2026-05-08 07:56 53.53599 -7.82921 40037 ft 471 kts 301°
2026-05-08 07:57 53.57296 -7.92038 40037 ft 471 kts 301°
2026-05-08 07:57 53.60987 -8.01172 40037 ft 472 kts 301°
2026-05-08 07:58 53.64679 -8.10334 40037 ft 472 kts 301°
2026-05-08 07:58 53.68347 -8.19466 40037 ft 473 kts 301°
2026-05-08 07:59 53.72036 -8.28690 40043 ft 473 kts 301°
2026-05-08 07:59 53.75700 -8.37880 40045 ft 473 kts 301°
2026-05-08 08:00 53.79373 -8.47117 40047 ft 472 kts 301°
2026-05-08 08:00 53.83035 -8.56348 40036 ft 471 kts 301°
2026-05-08 08:01 53.86686 -8.65570 40044 ft 470 kts 301°
2026-05-08 08:01 53.90307 -8.74727 40061 ft 471 kts 301°
2026-05-08 08:02 53.93959 -8.83985 40051 ft 472 kts 301°
2026-05-08 08:02 53.97612 -8.93274 40056 ft 472 kts 301°
2026-05-08 08:03 54.01234 -9.02516 40056 ft 472 kts 301°
2026-05-08 08:03 54.04881 -9.11840 40056 ft 473 kts 301°
2026-05-08 08:04 54.08530 -9.21191 40057 ft 473 kts 301°
2026-05-08 08:04 54.12156 -9.30492 40058 ft 473 kts 301°
2026-05-08 08:05 54.15805 -9.39858 40065 ft 474 kts 301°
2026-05-08 08:05 54.19454 -9.49234 40070 ft 474 kts 300°
2026-05-08 08:06 54.23106 -9.58631 40070 ft 474 kts 300°
2026-05-08 08:06 54.26744 -9.68023 40070 ft 477 kts 300°
2026-05-08 08:07 54.30415 -9.77528 40079 ft 479 kts 300°
2026-05-08 08:07 54.34087 -9.87058 40085 ft 479 kts 300°
2026-05-08 08:08 54.37759 -9.96610 40086 ft 479 kts 300°
2026-05-08 08:08 54.41410 -10.06133 40095 ft 479 kts 300°
2026-05-08 08:09 54.45075 -10.15712 40095 ft 479 kts 300°
2026-05-08 08:09 54.48730 -10.25292 40094 ft 478 kts 300°
2026-05-08 08:10 54.52349 -10.34824 40094 ft 478 kts 300°
2026-05-08 08:10 54.55982 -10.44429 40094 ft 477 kts 300°
2026-05-08 08:11 54.59580 -10.53971 40096 ft 477 kts 300°
2026-05-08 08:11 54.63200 -10.63612 40099 ft 477 kts 300°
2026-05-08 08:12 54.66807 -10.73261 40100 ft 479 kts 300°
2026-05-08 08:12 54.70403 -10.82910 40098 ft 480 kts 300°
2026-05-08 08:13 54.74005 -10.92605 40100 ft 481 kts 300°
2026-05-08 08:13 54.77625 -11.02389 40093 ft 481 kts 300°
2026-05-08 08:14 54.81204 -11.12088 40091 ft 479 kts 300°
2026-05-08 08:14 54.84797 -11.21856 40095 ft 478 kts 300°
2026-05-08 08:15 54.88347 -11.31537 40098 ft 478 kts 300°
2026-05-08 08:15 54.91926 -11.41332 40102 ft 478 kts 300°
2026-05-08 08:16 54.95489 -11.51128 40106 ft 478 kts 300°
2026-05-08 08:16 54.99028 -11.60894 40109 ft 479 kts 300°
2026-05-08 08:17 55.02579 -11.70735 40108 ft 479 kts 299°
2026-05-08 08:17 55.06102 -11.80542 40119 ft 479 kts 299°
2026-05-08 08:18 55.09640 -11.90432 40114 ft 479 kts 299°
2026-05-08 08:18 55.13144 -12.00269 40115 ft 479 kts 299°
2026-05-08 08:19 55.16658 -12.10173 40114 ft 479 kts 299°
2026-05-08 08:19 55.20164 -12.20104 40120 ft 478 kts 299°
2026-05-08 08:20 55.23635 -12.29976 40117 ft 478 kts 299°
2026-05-08 08:20 55.27115 -12.39918 40122 ft 478 kts 299°
2026-05-08 08:21 55.30591 -12.49894 40121 ft 478 kts 299°
2026-05-08 08:21 55.34029 -12.59806 40123 ft 478 kts 299°
2026-05-08 08:22 55.37484 -12.69816 40123 ft 479 kts 299°
2026-05-08 08:22 55.40915 -12.79807 40129 ft 480 kts 299°
2026-05-08 08:23 55.44368 -12.89914 40129 ft 481 kts 299°
2026-05-08 08:23 55.47813 -13.00043 40132 ft 481 kts 299°
2026-05-08 08:24 55.51223 -13.10114 40133 ft 480 kts 298°
2026-05-08 08:24 55.54637 -13.20239 40134 ft 479 kts 298°
2026-05-08 08:25 55.58045 -13.30402 40139 ft 479 kts 298°
2026-05-08 08:25 55.61412 -13.40484 40137 ft 478 kts 298°
2026-05-08 08:26 55.64790 -13.50662 40141 ft 479 kts 298°
2026-05-08 08:26 55.68145 -13.60828 40142 ft 481 kts 298°
2026-05-08 08:27 55.71517 -13.71096 40151 ft 482 kts 298°
2026-05-08 08:27 55.74880 -13.81373 40148 ft 482 kts 298°